DELTA 1 DEB, 18645

Orbit data source: Space-Track

DELTA 1 DEB, 18645 is space debris in SSO originally from a launch on Tue, 06 Nov 1973 UTC launched from the Air Force Western Test Range (AFWTR). Debris objects in space refer to the collection of defunct objects orbiting the Earth. Examples of debris include non-operational satellites, rocket bodies, and fragments generated from explosions, collisions, or faulty payload assembly.

Loading next visibility...
Identifier
18645, 1973-086GX
Orbit
SSO
Country
Flag of USUS
Related business
Manufacturer
Unknown
Mission
Spacecraft
Bus & Motor
Unknown
Mass
Unknown
Launch date (UTC)
1973-11-06 (52 years ago)
Launch vehicle
Unknown
Launch site
Air Force Western Test Range (AFWTR)
Object type
Payload
Rocket body
Debris
Shape & HBR
Unknown shape, 1.1 m
Radar Cross Section
Small (<0.1 m²)

Expand to show TLE details & history
Last TLE update: 2 weeks ago

TLE from 2 weeks ago
0 DELTA 1 DEB
1 18645U 73086GX  25281.33509625 -.00000030  00000-0  12203-3 0  9994
2 18645 102.2888  46.8522 0118964 180.6741 203.6600 12.37329251832812
Epoch: 2025-10-08T08:02Z
TLE epoch observation values (Epoch: 2025-10-08T08:02:32.316Z)
Latitude
23.237°
Longitude
-96.33427°
Altitude
1,606.65 km
Speed
7.03 km/s
True Right ascension
02h 46m 02s
True Declination
23° 07' 33"
Sunlit
Object was in full shadow at epoch
Visualization orbit readout
Latitude
Unknown
Longitude
Unknown
Altitude
Unknown
Speed
Unknown
Apparent Right ascension
Unknown
Apparent Declination
Unknown
Sunlit
N/A
Visualization observer readout
Local Sidereal Time
10:09:45
Azimuth
Unknown
Elevation
Unknown
Doppler factor
Unknown
Orbital elements
Apogee altitude
1,609.446 km
Perigee altitude
1,421.634 km
Semi-major axis
7,893.677 km
Eccentricity
0.0119
Inclination
102.2888°
RAAN
46.8522°
Arg. of periapsis
180.6741°
True anomaly
203.12029°
Mean anomaly
203.66°
Eccentric anomaly
203.38941°
Mean motion
3.09474 °/min
Orbital period
116.33 mins
BSTAR
0.00012203
Loading maneuver chart data...
Computing Atmospheric mass density...

Documentation

Showing up to 5 results
|